AirNav   Air Wisconsin pilot careers
 
 730 users online  

VT32 Bobby Heliport
Brookline, Vermont, USA

GOING TO BROOKLINE?


FAA INFORMATION EFFECTIVE 29 MARCH 2018

Location

FAA Identifier: VT32
Lat/Long: 42-59-20.2890N / 072-37-41.3300W
42-59.338150N / 072-37.688833W
42.9889692 / -72.6281472
(estimated)
Elevation: 420 ft. / 128 m (estimated)
Variation: 15W (1985)
From city: 3 miles SE of BROOKLINE, VT
Time zone: UTC -4 (UTC -5 during Standard Time)
Zip code: 05345

Heliport Operations

Heliport use: Private use, PERSONAL USE.
Activation date: 07/1990
Control tower: no
ARTCC: BOSTON CENTER
FSS: BURLINGTON FLIGHT SERVICE STATION
Attendance: UNATNDD
Segmented circle: no

Heliport Communications

WX AWOS-3PT at EEN (17 nm E): 119.025 (603-358-6424)

Nearby radio navigation aids

VOR radial/distance  VOR name  Freq  Var
EENr322/18.8KEENE VORTAC109.4014W
CAMr105/31.4CAMBRIDGE VOR/DME115.0014W
RUTr171/35.2RUTLAND VOR/DME111.0015W
GDMr331/36.6GARDNER VOR/DME110.6014W

 
NDB name  Hdg/Dist  Freq  Var  ID
CLAREMONT222/25.423316WCNH -.-. -. ....

Heliport Services

Runway Information

Helipad H1

Dimensions: 75 x 50 ft. / 23 x 15 m
Surface: turf
Traffic pattern: leftleft

Heliport Ownership and Management from official FAA records

Ownership: Privately-owned
Owner: HERBERT D HOWE
125 WHITE OAK RUN
DARTMOUTH, MA 02747
Phone 508-636-4376
Manager: HERBERT D HOWE
125 WHITE OAK RUN
DARTMOUTH, MA 02747
Phone 508-636-4376

Heliport Operational Statistics

Aircraft based on the field: 1
Helicopters: 1
    

Instrument Procedures

There are no published instrument procedures at VT32.

Some nearby airports with instrument procedures:

4V8 - Deerfield Valley Regional Airport (11 nm W)
KEEN - Dillant-Hopkins Airport (17 nm E)
KVSF - Hartness State Airport (Springfield) (22 nm N)
0B5 - Turners Falls Airport (24 nm S)
KCNH - Claremont Municipal Airport (26 nm NE)
 
Loc | Ops | Rwys | IFR | FBO | Links
Com | Nav | Svcs | Stats | Notes

AirNav Hotels Sweepstakes
 
Area around VT32 (Bobby Heliport)
 
Road maps at: MapQuest Bing Google
 
Aerial photo
No photo
 
Sectional chart

 
Airport distance calculator
Flying to Bobby Heliport? Find the distance to fly.

From to VT32

Sunrise and sunset
Times for 20-Apr-2018
 Local
(UTC-4)
 Zulu
(UTC)
Morning civil twilight05:3209:32
Sunrise06:0210:02
Sunset19:3723:37
Evening civil twilight20:0700:07

Current date and time
Zulu (UTC)  20-Apr-2018 11:37:56
Local (UTC-4)  20-Apr-2018 07:37:56
 
METAR
KEEN 
17nm E 
201056Z AUTO 33007KT 10SM OVC032 01/M04 A2999 RMK AO2 SLP175 T00111044 FZRANO
KVSF 
22nm N 
201054Z AUTO 30008KT 270V340 10SM OVC027 01/M04 A3000 RMK AO2 SLP164 T00061039
KDDH 
28nm W 
201054Z AUTO 29006KT 10SM SCT033 OVC041 00/M06 A3004 RMK AO2 SLP180 T00001061
KAQW 
29nm SW 
201052Z AUTO 26018KT 10SM OVC035 00/M05 A3003 RMK AO2 SLP178 T00001050
KORE 
30nm SE 
201052Z AUTO VRB05KT 10SM OVC036 01/M04 A2999 RMK AO2 SLP163 T00061044
KAFN 
30nm E 
201052Z AUTO VRB04KT 10SM OVC027 01/M04 A2994 RMK AO2 SLP153 T00111039
TAF
KRUT 
35nm NW 
200536Z 2006/2106 30004KT P6SM VCSH BKN016 OVC025 TEMPO 2006/2009 3SM -SN BR FM201300 32008G14KT P6SM OVC025 FM201900 31013KT P6SM VCSH OVC035 FM210100 30004KT P6SM BKN045
KLEB 
41nm N 
200907Z 2009/2106 33007KT P6SM VCSH BKN025 OVC040 FM201400 33010G19KT P6SM BKN035 FM210000 30009KT P6SM BKN040
NOTAMs
Click for the latest NOTAMs
NOTAMs are issued by the DoD/FAA and will open in a separate window not controlled by AirNav.

 

 
 

Would you like to see your business listed on this page?

 If your business provides an interesting product or service to pilots, flight crews, aircraft, or users of the Bobby Heliport, you should consider listing it here.  To start the listing process, click on the button below
 
Add a business
 

Other Pages about Bobby Heliport

Update a link
 
Copyright © AirNav, LLC. All rights reserved. Privacy Policy  Contact